Regional Weather Roundup
Issued by NWS Newport/Morehead, NC

Current Version | Previous Version | Graphics & Text | Print | Product List | Glossary Off
Versions: 1 2 3 4 5 6 7 8 9 10 11 12 13 14 15 16 17 18 19 20 21 22 23 24 25 26 27 28 29 30 31 32 33 34 35 36 37 38 39 40 41 42 43 44 45 46 47 48 49 50

000
ASUS42 KMHX 030212
RWRMHX
WEATHER ROUNDUP FOR EASTERN NORTH CAROLINA
NATIONAL WEATHER SERVICE NEWPORT/MOREHEAD CITY NC
1000 PM EDT SAT MAY 02 2015

NOTE: "FAIR" INDICATES FEW OR NO CLOUDS BELOW 12,000 FEET
WITH NO SIGNIFICANT WEATHER AND/OR OBSTRUCTIONS TO VISIBILITY

NCZ015>017-031-032-045>047-102-103-030300-
NORTH COAST

CITY           SKY/WX    TMP DP  RH WIND       PRES   REMARKS
EDENTON        CLEAR     54  50  87 SE3       30.08R
ELIZABETH CITY CLEAR     51  47  86 S3        30.08R
KITTY HAWK     CLEAR     50  46  84 CALM      30.07R
MANTEO         CLEAR     51  46  84 CALM      30.08R

$$

NCZ045>047-081-094-103-104-030300-
CENTRAL COAST

CITY           SKY/WX    TMP DP  RH WIND       PRES   REMARKS
FRISCO         CLEAR     48  45  89 NE3       30.08R
SWANQUARTER      N/A     54 N/A N/A SE1       30.06R

$$

NCZ095-097-098-100-101-030300-
SOUTHERN COAST

CITY           SKY/WX    TMP DP  RH WIND       PRES   REMARKS
BEAUFORT       CLEAR     55  51  86 CALM      30.10R
CEDAR ISLAND     N/A     61 N/A N/A NE3       30.12S
JACKSONVILLE   CLEAR     61  55  81 E9        30.09R
PINEY ISLAND   CLEAR    N/A N/A N/A E6        30.09R
WILMINGTON     CLEAR     59  55  87 CALM      30.09R


$$

NCZ011>013-027>030-043-044-078>080-089-090>093-098-030300-
COASTAL PLAIN

CITY           SKY/WX    TMP DP  RH WIND       PRES   REMARKS
AHOSKIE        PTCLDY    52  50  93 CALM      30.09R
CLINTON        CLEAR     57  56  96 CALM      30.10R
ELIZABETHTOWN  PTCLDY    60  52  75 CALM      30.09R
GOLDSBORO      CLEAR     57  54  90 E2        30.07R
GREENVILLE     PTCLDY    55  54  94 CALM      30.10R
HAVELOCK       CLEAR     57  50  77 SE3       30.11R
KENANSVILLE    CLEAR     53  51  94 CALM      30.10R
KINSTON        NOT AVBL
NEW BERN       PTCLDY    60  51  72 SE6       30.10R
RICHLANDS      PTCLDY    54  48  82 CALM      30.10R
ROCKY MOUNT    CLEAR     54  53  97 CALM      30.09R
WASHINGTON       N/A     57  51  79 SE3       30.10R
WHITEVILLE     PTCLDY    60  52  75 CALM      30.09R

$$

AMZ130-135-150-152-154-156-158-170-250-252-270-ANZ085-086-088-633-658-670-030300-
MARINE OBSERVATIONS

STATION/POSITION TIME  TEMP    WIND        PRES    WAVE   SWELL
                       AIR SEA DIR/SP/G            HT/PER HT/PER
                 (UTC) (F)     (DEG/KT/KT) (MB)    (FT/S) (FT/S)
CHESAPEAKE LIGHT 0200   51     150/ 10/ 11 1018.5
64 E VA BEACH    0150   57 63  350/  6/ 10 1017.5    9/11  10/11
DUCK             0100   53 54   80/  7/  8 1016.8
2 E DUCK         0111      55                N/A     6/12   3/12
OREGON INLET     0100   52 57   40/  7/  9 1017.8
13E OREGON INLT  0100      50                N/A     8/11   5/11
HATTERAS CG      0106   57 62   40/  4/  6 1017.7
DIAMOND BUOY     0150   56 70   30/ 14/ 16 1018.4    7/12   7/12
CAPE LOOKOUT     0200   61      60/  9/ 10 1018.8
BEAUFORT LAB     0106   59 62   80/  3/  6 1017.7
27 SE WRIGHTSVLE 0100   64 72  320/  2/  4   N/A
5 SE WRIGHTSVLE  0108   66 66  240/  6/  8 1018.0
225 S CAPE HAT   0150   65 69  350/ 21/ 25 1017.8   11/11   8/11
41 SE CHARLESTON 0150   69 72  220/ 10/ 12 1018.5    3/11   3/11

$$


USA.gov is the U.S. government's official web portal to all federal, state and local government web resources and services.